timestamp,surface_pressure_avg,surface_temp_avg,battery_voltage,lat,long
2020-04-02 00:09:01+00:00,232.9781,1.0,12.89,47.84626,-54.09684
2020-04-02 00:19:01+00:00,234.6764,1.02,12.73,47.84626,-54.09684
2020-04-02 00:29:01+00:00,236.1014,1.08,12.73,47.84626,-54.09684
2020-04-02 00:39:01+00:00,237.6131,1.06,12.73,47.84626,-54.09684
2020-04-02 00:49:01+00:00,239.9681,1.07,12.73,47.84626,-54.09684
2020-04-02 00:59:01+00:00,239.7097,1.09,12.73,47.84626,-54.09684
2020-04-02 01:09:01+00:00,239.2347,1.11,12.73,47.84626,-54.09684
2020-04-02 01:19:01+00:00,241.1848,1.84,12.65,47.84626,-54.09684
2020-04-02 01:29:01+00:00,245.9597,1.86,12.65,47.84626,-54.09684
2020-04-02 01:39:01+00:00,249.0431,1.48,12.65,47.84626,-54.09684
2020-04-02 01:49:01+00:00,249.9815,1.08,12.65,47.84626,-54.09684
2020-04-02 01:59:01+00:00,252.4797,1.0,12.65,47.84626,-54.09684
2020-04-02 02:09:01+00:00,257.9481,1.0,12.65,47.84626,-54.09684
2020-04-02 02:19:01+00:00,259.5165,1.0,12.65,47.84626,-54.09684
2020-04-02 02:29:01+00:00,259.6714,0.98,12.65,47.84626,-54.09684
2020-04-02 02:39:01+00:00,263.538,0.95,12.65,47.84626,-54.09684
2020-04-02 02:49:01+00:00,270.1297,0.93,12.65,47.84626,-54.09684
2020-04-02 02:59:01+00:00,271.0148,0.9,12.65,47.84626,-54.09684
2020-04-02 03:09:01+00:00,271.9565,0.9,12.65,47.84626,-54.09684
2020-04-02 03:19:01+00:00,275.6765,0.92,12.65,47.84626,-54.09684
2020-04-02 03:29:01+00:00,279.3631,0.84,12.65,47.84626,-54.09684
2020-04-02 03:39:01+00:00,282.7531,0.8,12.65,47.84626,-54.09684
2020-04-02 03:49:01+00:00,287.5397,0.83,12.65,47.84626,-54.09684
2020-04-02 03:59:01+00:00,293.0447,0.83,12.65,47.84626,-54.09684
2020-04-02 04:09:01+00:00,300.8397,0.83,12.65,47.84626,-54.09684
2020-04-02 04:19:01+00:00,303.6763,0.8,12.65,47.84626,-54.09684
2020-04-02 04:29:01+00:00,303.558,0.84,12.65,47.84626,-54.09684
2020-04-02 04:39:01+00:00,305.1597,0.88,12.65,47.84626,-54.09684
2020-04-02 04:49:01+00:00,315.0413,0.9,12.65,47.84626,-54.09684
2020-04-02 04:59:01+00:00,315.1564,0.9,12.65,47.84626,-54.09684
2020-04-02 05:09:01+00:00,312.1429,0.88,12.65,47.84626,-54.09684
2020-04-02 05:19:01+00:00,315.673,0.8,12.57,47.84626,-54.09684
2020-04-02 05:29:01+00:00,321.703,0.8,12.57,47.84626,-54.09684
2020-04-02 05:39:01+00:00,322.6996,0.8,12.57,47.84626,-54.09684
2020-04-02 05:49:01+00:00,319.3697,0.78,12.57,47.84626,-54.09684
2020-04-02 05:59:01+00:00,323.0179,0.8,12.57,47.84626,-54.09684
2020-04-02 06:09:01+00:00,326.7029,0.89,12.57,47.84626,-54.09684
2020-04-02 06:19:01+00:00,326.4896,0.9,12.57,47.84626,-54.09684
2020-04-02 06:29:01+00:00,324.7513,0.9,12.57,47.84626,-54.09684
2020-04-02 06:39:01+00:00,325.353,0.93,12.57,47.84626,-54.09684
2020-04-02 06:49:01+00:00,325.70799999999997,1.05,12.57,47.84626,-54.09684
2020-04-02 06:59:01+00:00,319.4096,1.14,12.57,47.84626,-54.09684
2020-04-02 07:09:01+00:00,318.1196,1.17,12.57,47.84626,-54.09684
2020-04-02 07:19:01+00:00,316.8613,1.11,12.57,47.84626,-54.09684
2020-04-02 07:29:01+00:00,314.303,1.11,12.57,47.84626,-54.09684
2020-04-02 07:39:01+00:00,311.4363,1.1,12.57,47.84626,-54.09684
2020-04-02 07:49:01+00:00,309.193,1.1,12.57,47.84626,-54.09684
2020-04-02 07:59:01+00:00,306.8298,0.8,12.57,47.84626,-54.09684
2020-04-02 08:09:01+00:00,303.7913,0.78,12.57,47.84626,-54.09684
2020-04-02 08:19:01+00:00,301.5779,0.77,12.57,47.84626,-54.09684
2020-04-02 08:29:01+00:00,297.053,0.76,12.57,47.84626,-54.09684
2020-04-02 08:39:01+00:00,289.5447,0.77,12.57,47.84626,-54.09684
2020-04-02 08:49:01+00:00,283.473,0.77,12.57,47.84626,-54.09684
2020-04-02 08:59:01+00:00,280.6347,0.78,12.57,47.84626,-54.09684
2020-04-02 09:09:01+00:00,273.4681,0.78,12.57,47.84626,-54.09684
2020-04-02 09:19:01+00:00,262.5331,0.77,12.57,47.84626,-54.09684
2020-04-02 09:29:01+00:00,258.188,0.75,12.57,47.84626,-54.09684
2020-04-02 09:39:01+00:00,258.1913,0.76,12.57,47.84626,-54.09684
2020-04-02 09:49:01+00:00,253.5898,0.77,12.57,47.84626,-54.09684
2020-04-02 09:59:01+00:00,247.0264,0.73,12.57,47.84626,-54.09684
2020-04-02 10:09:01+00:00,242.5865,0.75,12.57,47.84626,-54.09684
2020-04-02 10:19:01+00:00,238.4948,0.77,12.57,47.84626,-54.09684
2020-04-02 10:29:01+00:00,237.7664,0.74,12.57,47.84626,-54.09684
2020-04-02 10:39:01+00:00,233.2997,0.7,12.57,47.84626,-54.09684
2020-04-02 10:49:01+00:00,229.9547,0.7,12.57,47.84626,-54.09684
2020-04-02 10:59:01+00:00,230.8281,0.7,12.57,47.84626,-54.09684
2020-04-02 11:09:01+00:00,233.6096,0.69,12.57,47.84626,-54.09684
2020-04-02 11:19:01+00:00,229.9298,0.7,12.65,47.84626,-54.09684
2020-04-02 11:29:01+00:00,226.2031,0.66,12.65,47.84626,-54.09684
2020-04-02 11:39:01+00:00,229.1681,0.65,12.65,47.84626,-54.09684
2020-04-02 11:49:01+00:00,231.6947,0.68,12.65,47.84626,-54.09684
2020-04-02 11:59:01+00:00,230.6596,0.63,12.65,47.84626,-54.09684
2020-04-02 12:09:01+00:00,230.4849,0.6,12.65,47.84626,-54.09684
2020-04-02 12:19:01+00:00,231.4998,0.6,12.97,47.84626,-54.09684
2020-04-02 12:29:01+00:00,232.7131,0.6,12.97,47.84626,-54.09684
2020-04-02 12:39:01+00:00,229.7348,0.6,12.97,47.84626,-54.09684
2020-04-02 12:49:01+00:00,226.4882,0.6,12.97,47.84626,-54.09684
2020-04-02 12:59:01+00:00,227.7164,0.6,12.97,47.84626,-54.09684
2020-04-02 13:09:01+00:00,230.1764,0.6,12.97,47.84626,-54.09684
2020-04-02 13:19:01+00:00,226.2581,0.6,13.44,47.84626,-54.09684
2020-04-02 13:29:01+00:00,227.3714,0.6,13.44,47.84626,-54.09684
2020-04-02 13:39:01+00:00,231.5848,0.6,13.44,47.84626,-54.09684
2020-04-02 13:49:01+00:00,231.1114,0.6,13.44,47.84626,-54.09684
2020-04-02 13:59:01+00:00,228.1165,0.6,13.44,47.84626,-54.09684
2020-04-02 14:09:01+00:00,229.8665,0.6,13.44,47.84626,-54.09684
2020-04-02 14:19:01+00:00,231.7398,0.65,14.56,47.84626,-54.09684
2020-04-02 14:29:01+00:00,231.2031,0.7,14.56,47.84626,-54.09684
2020-04-02 14:39:01+00:00,235.7364,0.7,14.56,47.84626,-54.09684
2020-04-02 14:49:01+00:00,242.4664,0.7,14.56,47.84626,-54.09684
2020-04-02 14:59:01+00:00,242.4598,0.87,14.56,47.84626,-54.09684
2020-04-02 15:09:01+00:00,242.6048,0.82,14.56,47.84626,-54.09684
2020-04-02 15:19:01+00:00,250.2064,0.8,14.72,47.84626,-54.09684
2020-04-02 15:29:01+00:00,258.868,0.89,14.72,47.84626,-54.09684
2020-04-02 15:39:01+00:00,260.4948,1.0,14.72,47.84626,-54.09684
2020-04-02 15:49:01+00:00,262.2298,0.89,14.72,47.84626,-54.09684
2020-04-02 15:59:01+00:00,271.8031,0.88,14.72,47.84626,-54.09684
2020-04-02 16:09:01+00:00,279.2047,0.8,14.72,47.84626,-54.09684
2020-04-02 16:19:01+00:00,276.6347,0.8,14.64,47.84626,-54.09684
2020-04-02 16:29:01+00:00,279.7247,0.8,14.64,47.84626,-54.09684
2020-04-02 16:39:01+00:00,291.2397,0.79,14.64,47.84626,-54.09684
2020-04-02 16:49:01+00:00,291.5447,0.9,14.64,47.84626,-54.09684
2020-04-02 16:59:01+00:00,284.5247,0.86,14.64,47.84626,-54.09684
2020-04-02 17:09:01+00:00,290.7797,0.8,14.64,47.84626,-54.09684
2020-04-02 17:19:01+00:00,297.1531,0.8,14.4,47.84626,-54.09684
2020-04-02 17:29:01+00:00,291.783,0.8,14.4,47.84626,-54.09684
2020-04-02 17:39:01+00:00,286.2747,0.8,14.4,47.84626,-54.09684
2020-04-02 17:49:01+00:00,292.813,0.8,14.4,47.84626,-54.09684
2020-04-02 17:59:01+00:00,298.2097,0.82,14.4,47.84626,-54.09684
2020-04-02 18:09:01+00:00,296.983,0.85,14.4,47.84626,-54.09684
2020-04-02 18:19:01+00:00,297.1313,0.9,14.16,47.84626,-54.09684
2020-04-02 18:29:01+00:00,304.2963,0.9,14.16,47.84626,-54.09684
2020-04-02 18:39:01+00:00,306.2814,0.94,14.16,47.84626,-54.09684
2020-04-02 18:49:01+00:00,302.2947,0.99,14.16,47.84626,-54.09684
2020-04-02 18:59:01+00:00,301.9097,1.0,14.16,47.84626,-54.09684
2020-04-02 19:09:01+00:00,302.2713,1.0,14.16,47.84626,-54.09684
2020-04-02 19:19:01+00:00,295.6547,1.0,14.0,47.84626,-54.09684
2020-04-02 19:29:01+00:00,290.4647,1.04,14.0,47.84626,-54.09684
2020-04-02 19:39:01+00:00,290.6847,1.0,14.0,47.84626,-54.09684
2020-04-02 19:49:01+00:00,288.073,0.94,14.0,47.84626,-54.09684
2020-04-02 19:59:01+00:00,282.4747,0.9,14.0,47.84626,-54.09684
2020-04-02 20:09:01+00:00,279.5664,0.9,14.0,47.84626,-54.09684
2020-04-02 20:19:01+00:00,278.4631,0.89,13.68,47.84626,-54.09684
2020-04-02 20:29:01+00:00,272.3098,0.9,13.68,47.84626,-54.09684
2020-04-02 20:39:01+00:00,266.2447,0.9,13.68,47.84626,-54.09684
2020-04-02 20:49:01+00:00,263.0181,0.91,13.68,47.84626,-54.09684
2020-04-02 20:59:01+00:00,261.0814,0.95,13.68,47.84626,-54.09684
2020-04-02 21:09:01+00:00,258.0264,0.97,13.68,47.84626,-54.09684
2020-04-02 21:19:01+00:00,257.053,1.09,13.37,47.84626,-54.09684
2020-04-02 21:29:01+00:00,253.0263,1.1,13.37,47.84626,-54.09684
2020-04-02 21:39:01+00:00,249.2363,1.1,13.37,47.84626,-54.09684
2020-04-02 21:49:01+00:00,244.6381,1.11,13.37,47.84626,-54.09684
2020-04-02 21:59:01+00:00,242.5914,1.21,13.37,47.84626,-54.09684
2020-04-02 22:09:01+00:00,240.1798,1.2,13.37,47.84626,-54.09684
2020-04-02 22:19:01+00:00,236.9365,1.16,12.97,47.84626,-54.09684
2020-04-02 22:29:01+00:00,236.2281,1.1,12.97,47.84626,-54.09684
2020-04-02 22:39:01+00:00,235.3531,1.1,12.97,47.84626,-54.09684
2020-04-02 22:49:01+00:00,232.9498,1.05,12.97,47.84626,-54.09684
2020-04-02 22:59:01+00:00,230.1598,1.17,12.97,47.84626,-54.09684
2020-04-02 23:09:01+00:00,231.1048,1.37,12.97,47.84626,-54.09684
2020-04-02 23:19:01+00:00,227.028,1.4,12.73,47.84626,-54.09684
2020-04-02 23:29:01+00:00,224.8382,1.4,12.73,47.84626,-54.09684
2020-04-02 23:39:01+00:00,226.9614,1.4,12.73,47.84626,-54.09684
2020-04-02 23:49:01+00:00,227.2247,1.53,12.73,47.84626,-54.09684
2020-04-02 23:59:01+00:00,220.8081,1.78,12.73,47.84626,-54.09684
